Weather History for Wausau, WI

Change the Weather History Date:

Friday, December 7, 2012

  Actual Average Record
Temperature  
Mean Temperature 30 °F 22 °F  
Max Temperature 34 °F 29 °F 47 °F (1939)
Min Temperature 25 °F 14 °F -25 °F (1972)
Degree Days  
Heating Degree Days 35 43  
Month to date heating degree days 208 294  
Since 1 July heating degree days 1977 2153  
Cooling Degree Days 0 0  
Month to date cooling degree days 0 0  
Year to date cooling degree days 725 407  
Moisture  
Dew Point 22 °F    
Average Humidity 75    
Maximum Humidity 88    
Minimum Humidity 61    
Precipitation  
Precipitation T in 0.05 in 0.87 in (1950)
Month to date precipitation 0.11 0.35  
Year to date precipitation 27.96 31.40  
Snow  
Snow T in 0.50 in 11.00 in (1927)
Month to date snowfall T 3.0  
Since 1 July snowfall 2.3 11.3  
Snow Depth 0.00 in    
Sea Level Pressure  
Sea Level Pressure 30.00 in    
Wind  
Wind Speed 5 mph (NNW)    
Max Wind Speed 13 mph    
Max Gust Speed 17 mph    
Visibility 10 miles    
Events      
T = Trace of Precipitation, MM = Missing Value Source: NWS Daily Summary

Daily Weather History Graph

Daily Weather History Graph

Search for Another Location

Airport:

Trip Planner

Search our weather history database for the weather conditions in past years. The results will help you decide how hot, cold, wet, or windy it might be!

Date:

Astronomy

Dec. 07, 2012 Rise Set
Actual Time 7:23 AM CST 4:17 PM CST
Civil Twilight 6:49 AM CST 4:50 PM CST
Nautical Twilight 6:12 AM CST 5:27 PM CST
Astronomical Twilight 5:37 AM CST 6:03 PM CST
Moon 12:27 AM CST (12/7) 12:27 PM CST (12/7)
Length of Visible Light 10h 00m
Length of Day
8h 53m
Last Quarter, 38% of the Moon is Illuminated
Dec 7
Last Quarter
Dec 13
New
Dec 19
First Quarter
Dec 28
Full
Jan 4
Last Quarter

Hourly Weather History & Observations

Time (CST) Temp. Windchill Dew Point Humidity Pressure Visibility Wind Dir Wind Speed Gust Speed Precip Events Conditions
12:54 AM 30.0 °F 23.2 °F 25.0 °F 82% 29.93 in 10.0 mi NW 6.9 mph - N/A   Clear
1:54 AM 30.0 °F 24.1 °F 25.0 °F 82% 29.95 in 10.0 mi NW 5.8 mph - N/A   Clear
2:54 AM 30.0 °F 24.1 °F 25.0 °F 82% 29.96 in 10.0 mi WNW 5.8 mph - N/A   Clear
3:54 AM 30.0 °F 23.2 °F 23.0 °F 75% 29.97 in 10.0 mi NW 6.9 mph - N/A   Clear
4:54 AM 28.0 °F - 23.0 °F 81% 29.99 in 10.0 mi Calm Calm - N/A   Clear
5:54 AM 27.0 °F 20.5 °F 21.9 °F 81% 29.99 in 10.0 mi NW 5.8 mph - N/A   Clear
6:54 AM 26.1 °F 19.4 °F 21.9 °F 84% 30.00 in 10.0 mi NW 5.8 mph - N/A   Clear
7:32 AM 24.8 °F 17.9 °F 21.2 °F 86% 29.95 in 10.0 mi NW 5.8 mph - N/A   Mostly Cloudy
7:54 AM 25.0 °F 16.3 °F 21.0 °F 85% 30.01 in 10.0 mi NW 8.1 mph - N/A   Overcast
8:54 AM 26.1 °F 19.4 °F 21.9 °F 84% 30.02 in 10.0 mi North 5.8 mph - N/A   Mostly Cloudy
9:01 AM 26.6 °F 19.1 °F 21.2 °F 80% 29.96 in 10.0 mi NNW 6.9 mph - N/A   Scattered Clouds
9:54 AM 27.0 °F 21.6 °F 21.0 °F 78% 30.03 in 10.0 mi North 4.6 mph - N/A   Scattered Clouds
10:54 AM 28.0 °F - 21.9 °F 78% 30.03 in 10.0 mi Calm Calm - N/A   Clear
11:54 AM 30.9 °F - 21.9 °F 69% 30.01 in 10.0 mi Calm Calm - N/A   Clear
12:54 PM 32.0 °F 27.5 °F 21.9 °F 66% 29.99 in 10.0 mi North 4.6 mph - N/A   Scattered Clouds
1:54 PM 33.1 °F 30.0 °F 21.9 °F 64% 29.99 in 10.0 mi North 3.5 mph - N/A   Partly Cloudy
2:54 PM 33.1 °F 30.0 °F 21.9 °F 64% 29.99 in 10.0 mi NNW 3.5 mph - N/A   Overcast
3:54 PM 32.0 °F 27.5 °F 21.9 °F 66% 30.00 in 10.0 mi NNW 4.6 mph - N/A   Overcast
4:54 PM 30.9 °F 25.2 °F 21.9 °F 69% 30.02 in 10.0 mi NNW 5.8 mph - N/A   Overcast
5:54 PM 30.0 °F 22.4 °F 21.0 °F 69% 30.03 in 10.0 mi North 8.1 mph - N/A   Overcast
7:54 PM 28.9 °F 23.9 °F 21.0 °F 72% 30.03 in 10.0 mi Variable 4.6 mph - N/A   Overcast
8:54 PM 28.9 °F - 21.0 °F 72% 30.04 in 10.0 mi Calm Calm - N/A   Overcast
9:54 PM 28.0 °F 20.8 °F 21.0 °F 75% 30.04 in 10.0 mi NNW 6.9 mph - N/A   Overcast
10:54 PM 28.0 °F 20.8 °F 21.0 °F 75% 30.04 in 10.0 mi North 6.9 mph - N/A   Overcast
11:54 PM 28.0 °F 22.8 °F 21.0 °F 75% 30.04 in 10.0 mi NNE 4.6 mph - N/A   Overcast